Time,TemperatureF,DewpointF,PressureIn,WindDirection,WindDirectionDegrees,WindSpeedMPH,WindSpeedGustMPH,Humidity,HourlyPrecipIn,Conditions,Clouds,dailyrainin,SoftwareType,DateUTC
2013-07-06 00:03:00,64.5,64.0,30.27,WSW,244,0.0,-999.0,98,-99.99,,,0.03,weatherlink.com 1.10,2013-07-06 04:03:00,
2013-07-06 00:18:00,64.3,64.0,30.26,NE,50,0.0,-999.0,98,-99.99,,,0.12,weatherlink.com 1.10,2013-07-06 04:18:00,
2013-07-06 00:33:00,64.3,64.0,30.27,West,277,0.0,-999.0,98,-99.99,,,0.19,weatherlink.com 1.10,2013-07-06 04:33:00,
2013-07-06 00:48:00,64.1,64.0,30.27,SSW,197,0.0,-999.0,98,-99.99,,,0.42,weatherlink.com 1.10,2013-07-06 04:48:00,
2013-07-06 01:03:00,63.6,63.0,30.28,WSW,242,1.0,-999.0,98,-99.99,,,0.45,weatherlink.com 1.10,2013-07-06 05:03:00,
2013-07-06 01:18:00,63.1,63.0,30.28,SW,217,0.0,-999.0,98,-99.99,,,0.48,weatherlink.com 1.10,2013-07-06 05:18:00,
2013-07-06 01:33:00,62.7,62.0,30.27,SSW,210,0.0,-999.0,98,-99.99,,,0.52,weatherlink.com 1.10,2013-07-06 05:33:00,
2013-07-06 01:48:00,62.3,62.0,30.26,SSW,210,0.0,-999.0,98,-99.99,,,0.52,weatherlink.com 1.10,2013-07-06 05:48:00,
2013-07-06 02:03:00,62.1,62.0,30.26,SSW,210,0.0,-999.0,98,-99.99,,,0.52,weatherlink.com 1.10,2013-07-06 06:03:00,
2013-07-06 02:18:00,62.6,62.0,30.26,SSW,210,0.0,-999.0,98,-99.99,,,0.52,weatherlink.com 1.10,2013-07-06 06:18:00,
2013-07-06 02:33:00,62.8,62.0,30.25,SSW,210,0.0,-999.0,98,-99.99,,,0.52,weatherlink.com 1.10,2013-07-06 06:33:00,
2013-07-06 02:48:00,63.1,63.0,30.25,SSW,209,0.0,-999.0,98,-99.99,,,0.52,weatherlink.com 1.10,2013-07-06 06:48:00,
2013-07-06 03:03:00,62.8,62.0,30.25,SSW,193,0.0,-999.0,98,-99.99,,,0.54,weatherlink.com 1.10,2013-07-06 07:03:00,
2013-07-06 03:18:00,62.6,62.0,30.25,East,95,0.0,-999.0,98,-99.99,,,0.56,weatherlink.com 1.10,2013-07-06 07:18:00,
2013-07-06 03:33:00,62.4,62.0,30.24,SSE,167,1.0,-999.0,98,-99.99,,,0.59,weatherlink.com 1.10,2013-07-06 07:33:00,
2013-07-06 03:48:00,62.5,62.0,30.24,ESE,112,6.0,-999.0,98,-99.99,,,0.59,weatherlink.com 1.10,2013-07-06 07:48:00,
2013-07-06 04:03:00,62.3,62.0,30.24,ENE,65,1.0,-999.0,98,-99.99,,,0.59,weatherlink.com 1.10,2013-07-06 08:03:00,
2013-07-06 04:18:00,62.3,62.0,30.24,ESE,122,2.0,-999.0,99,-99.99,,,0.59,weatherlink.com 1.10,2013-07-06 08:18:00,
2013-07-06 04:33:00,62.4,62.0,30.24,West,275,0.0,-999.0,99,-99.99,,,0.59,weatherlink.com 1.10,2013-07-06 08:33:00,
2013-07-06 04:48:00,62.7,63.0,30.23,North,9,1.0,-999.0,99,-99.99,,,0.59,weatherlink.com 1.10,2013-07-06 08:48:00,
2013-07-06 05:03:00,62.9,63.0,30.23,ESE,107,0.0,-999.0,99,-99.99,,,0.63,weatherlink.com 1.10,2013-07-06 09:03:00,
2013-07-06 05:18:00,63.1,63.0,30.23,WNW,297,2.0,-999.0,99,-99.99,,,0.72,weatherlink.com 1.10,2013-07-06 09:18:00,
2013-07-06 05:33:00,63.2,63.0,30.24,SSE,159,0.0,-999.0,99,-99.99,,,0.79,weatherlink.com 1.10,2013-07-06 09:33:00,
2013-07-06 05:48:00,63.4,63.0,30.24,South,186,2.0,-999.0,99,-99.99,,,0.84,weatherlink.com 1.10,2013-07-06 09:48:00,
2013-07-06 06:03:00,63.5,63.0,30.24,SSW,213,4.0,-999.0,99,-99.99,,,0.89,weatherlink.com 1.10,2013-07-06 10:03:00,
2013-07-06 06:18:00,63.6,63.0,30.25,SSW,212,0.0,-999.0,99,-99.99,,,0.89,weatherlink.com 1.10,2013-07-06 10:18:00,
2013-07-06 06:33:00,63.5,63.0,30.25,SW,230,2.0,-999.0,99,-99.99,,,0.93,weatherlink.com 1.10,2013-07-06 10:33:00,
2013-07-06 06:48:00,63.3,63.0,30.25,SSW,211,0.0,-999.0,99,-99.99,,,0.94,weatherlink.com 1.10,2013-07-06 10:48:00,
2013-07-06 07:03:00,63.3,63.0,30.25,SSW,197,3.0,-999.0,99,-99.99,,,0.94,weatherlink.com 1.10,2013-07-06 11:03:00,
2013-07-06 07:18:00,63.4,63.0,30.26,South,188,0.0,-999.0,99,-99.99,,,0.94,weatherlink.com 1.10,2013-07-06 11:18:00,
2013-07-06 07:33:00,63.6,63.0,30.25,South,177,0.0,-999.0,99,-99.99,,,0.97,weatherlink.com 1.10,2013-07-06 11:33:00,
2013-07-06 07:48:00,63.7,64.0,30.25,SSE,167,2.0,-999.0,99,-99.99,,,1.00,weatherlink.com 1.10,2013-07-06 11:48:00,
2013-07-06 08:03:00,63.7,64.0,30.25,South,173,0.0,-999.0,99,-99.99,,,1.07,weatherlink.com 1.10,2013-07-06 12:03:00,
2013-07-06 08:18:00,63.9,64.0,30.26,WSW,251,0.0,-999.0,99,-99.99,,,1.10,weatherlink.com 1.10,2013-07-06 12:18:00,
2013-07-06 08:33:00,63.8,64.0,30.26,South,172,0.0,-999.0,99,-99.99,,,1.11,weatherlink.com 1.10,2013-07-06 12:33:00,
2013-07-06 08:48:00,63.7,64.0,30.26,East,83,0.0,-999.0,99,-99.99,,,1.11,weatherlink.com 1.10,2013-07-06 12:48:00,
2013-07-06 09:03:00,63.9,64.0,30.27,SSW,203,0.0,-999.0,99,-99.99,,,1.11,weatherlink.com 1.10,2013-07-06 13:03:00,
2013-07-06 09:18:00,64.0,64.0,30.27,SSW,209,1.0,-999.0,99,-99.99,,,1.12,weatherlink.com 1.10,2013-07-06 13:18:00,
2013-07-06 09:33:00,64.2,64.0,30.27,SSW,207,0.0,-999.0,99,-99.99,,,1.12,weatherlink.com 1.10,2013-07-06 13:33:00,
2013-07-06 09:48:00,63.9,64.0,30.27,SSE,166,1.0,-999.0,99,-99.99,,,1.12,weatherlink.com 1.10,2013-07-06 13:48:00,
2013-07-06 10:03:00,64.1,64.0,30.27,NE,42,1.0,-999.0,99,-99.99,,,1.13,weatherlink.com 1.10,2013-07-06 14:03:00,
2013-07-06 10:18:00,63.9,64.0,30.27,SW,233,3.0,-999.0,99,-99.99,,,1.16,weatherlink.com 1.10,2013-07-06 14:18:00,
2013-07-06 10:33:00,64.1,64.0,30.27,SSW,195,0.0,-999.0,99,-99.99,,,1.16,weatherlink.com 1.10,2013-07-06 14:33:00,
2013-07-06 10:48:00,63.9,64.0,30.27,SSW,202,0.0,-999.0,99,-99.99,,,1.16,weatherlink.com 1.10,2013-07-06 14:48:00,
2013-07-06 11:03:00,64.1,64.0,30.28,South,176,0.0,-999.0,99,-99.99,,,1.16,weatherlink.com 1.10,2013-07-06 15:03:00,
2013-07-06 11:18:00,63.5,63.0,30.28,South,188,0.0,-999.0,99,-99.99,,,1.17,weatherlink.com 1.10,2013-07-06 15:18:00,
2013-07-06 11:33:00,64.1,64.0,30.28,South,172,2.0,-999.0,99,-99.99,,,1.17,weatherlink.com 1.10,2013-07-06 15:33:00,
2013-07-06 11:48:00,64.3,64.0,30.27,West,265,1.0,-999.0,99,-99.99,,,1.17,weatherlink.com 1.10,2013-07-06 15:48:00,
2013-07-06 12:03:00,64.2,64.0,30.27,WSW,248,0.0,-999.0,99,-99.99,,,1.17,weatherlink.com 1.10,2013-07-06 16:03:00,
2013-07-06 12:18:00,64.7,64.0,30.27,WSW,238,0.0,-999.0,99,-99.99,,,1.20,weatherlink.com 1.10,2013-07-06 16:18:00,
2013-07-06 12:33:00,65.6,65.0,30.26,SW,227,2.0,-999.0,99,-99.99,,,1.20,weatherlink.com 1.10,2013-07-06 16:33:00,
2013-07-06 12:48:00,66.2,66.0,30.27,SW,218,0.0,-999.0,99,-99.99,,,1.20,weatherlink.com 1.10,2013-07-06 16:48:00,
2013-07-06 13:18:00,67.2,67.0,30.25,SE,128,0.0,-999.0,98,-99.99,,,1.20,weatherlink.com 1.10,2013-07-06 17:18:00,
2013-07-06 13:33:00,66.5,65.0,30.25,SSW,202,0.0,-999.0,96,-99.99,,,1.20,weatherlink.com 1.10,2013-07-06 17:33:00,
2013-07-06 13:48:00,67.2,66.0,30.25,ENE,66,2.0,-999.0,96,-99.99,,,1.20,weatherlink.com 1.10,2013-07-06 17:48:00,
2013-07-06 14:18:00,67.3,67.0,30.24,SSW,209,3.0,-999.0,97,-99.99,,,1.21,weatherlink.com 1.10,2013-07-06 18:18:00,
2013-07-06 14:33:00,68.5,67.0,30.23,SSW,203,0.0,-999.0,96,-99.99,,,1.21,weatherlink.com 1.10,2013-07-06 18:33:00,
2013-07-06 14:48:00,69.0,67.0,30.22,West,279,0.0,-999.0,93,-99.99,,,1.21,weatherlink.com 1.10,2013-07-06 18:48:00,
2013-07-06 15:03:00,69.1,67.0,30.22,NW,324,2.0,-999.0,94,-99.99,,,1.21,weatherlink.com 1.10,2013-07-06 19:03:00,
2013-07-06 15:18:00,70.1,67.0,30.21,NNW,329,2.0,-999.0,89,-99.99,,,1.21,weatherlink.com 1.10,2013-07-06 19:18:00,
2013-07-06 15:48:00,68.3,67.0,30.21,South,183,0.0,-999.0,94,-99.99,,,1.21,weatherlink.com 1.10,2013-07-06 19:48:00,
2013-07-06 16:03:00,68.8,67.0,30.21,SW,233,0.0,-999.0,94,-99.99,,,1.21,weatherlink.com 1.10,2013-07-06 20:03:00,
2013-07-06 16:18:00,69.0,67.0,30.20,NNW,342,1.0,-999.0,93,-99.99,,,1.21,weatherlink.com 1.10,2013-07-06 20:18:00,
2013-07-06 16:48:00,68.9,68.0,30.21,ESE,115,0.0,-999.0,96,-99.99,,,1.22,weatherlink.com 1.10,2013-07-06 20:48:00,
2013-07-06 17:18:00,67.9,67.0,30.20,NE,42,3.0,-999.0,97,-99.99,,,1.29,weatherlink.com 1.10,2013-07-06 21:18:00,
2013-07-06 17:33:00,68.3,68.0,30.20,NW,314,0.0,-999.0,97,-99.99,,,1.29,weatherlink.com 1.10,2013-07-06 21:33:00,
2013-07-06 17:48:00,68.0,67.0,30.20,SW,235,1.0,-999.0,97,-99.99,,,1.29,weatherlink.com 1.10,2013-07-06 21:48:00,
2013-07-06 18:18:00,68.6,67.0,30.20,SSW,196,1.0,-999.0,95,-99.99,,,1.29,weatherlink.com 1.10,2013-07-06 22:18:00,
2013-07-06 18:33:00,68.7,67.0,30.19,SW,224,2.0,-999.0,93,-99.99,,,1.29,weatherlink.com 1.10,2013-07-06 22:33:00,
2013-07-06 18:48:00,67.7,66.0,30.20,SW,224,1.0,-999.0,95,-99.99,,,1.34,weatherlink.com 1.10,2013-07-06 22:48:00,
2013-07-06 19:03:00,67.1,66.0,30.20,SW,225,0.0,-999.0,97,-99.99,,,1.48,weatherlink.com 1.10,2013-07-06 23:03:00,
2013-07-06 19:18:00,67.2,67.0,30.20,SW,223,0.0,-999.0,98,-99.99,,,1.50,weatherlink.com 1.10,2013-07-06 23:18:00,
2013-07-06 19:33:00,66.5,66.0,30.21,West,265,0.0,-999.0,97,-99.99,,,1.52,weatherlink.com 1.10,2013-07-06 23:33:00,
2013-07-06 19:48:00,66.1,66.0,30.21,SW,218,0.0,-999.0,98,-99.99,,,1.56,weatherlink.com 1.10,2013-07-06 23:48:00,
2013-07-06 20:03:00,65.1,65.0,30.21,South,191,0.0,-999.0,98,-99.99,,,1.65,weatherlink.com 1.10,2013-07-07 00:03:00,
2013-07-06 20:18:00,65.2,65.0,30.20,SSW,211,0.0,-999.0,98,-99.99,,,1.65,weatherlink.com 1.10,2013-07-07 00:18:00,
2013-07-06 20:33:00,65.5,65.0,30.20,SSW,212,0.0,-999.0,98,-99.99,,,1.65,weatherlink.com 1.10,2013-07-07 00:33:00,
2013-07-06 20:48:00,65.5,65.0,30.21,SSW,210,0.0,-999.0,98,-99.99,,,1.65,weatherlink.com 1.10,2013-07-07 00:48:00,
2013-07-06 21:18:00,65.7,65.0,30.22,South,176,0.0,-999.0,98,-99.99,,,1.65,weatherlink.com 1.10,2013-07-07 01:18:00,
2013-07-06 21:33:00,65.7,65.0,30.22,South,180,0.0,-999.0,98,-99.99,,,1.65,weatherlink.com 1.10,2013-07-07 01:33:00,
2013-07-06 21:48:00,65.7,65.0,30.22,South,180,1.0,-999.0,98,-99.99,,,1.66,weatherlink.com 1.10,2013-07-07 01:48:00,
2013-07-06 22:03:00,65.8,65.0,30.23,NE,43,3.0,-999.0,98,-99.99,,,1.66,weatherlink.com 1.10,2013-07-07 02:03:00,
2013-07-06 22:18:00,65.7,65.0,30.23,SW,217,0.0,-999.0,98,-99.99,,,1.67,weatherlink.com 1.10,2013-07-07 02:18:00,
2013-07-06 22:48:00,65.9,66.0,30.23,South,189,0.0,-999.0,99,-99.99,,,1.67,weatherlink.com 1.10,2013-07-07 02:48:00,
2013-07-06 23:33:00,66.2,66.0,30.23,SSW,206,0.0,-999.0,99,-99.99,,,1.79,weatherlink.com 1.10,2013-07-07 03:33:00,
2013-07-06 23:48:00,66.2,66.0,30.23,SSW,206,0.0,-999.0,99,-99.99,,,2.28,weatherlink.com 1.10,2013-07-07 03:48:00,